Regional Weather Roundup
Issued by NWS

Home | Current Version | Previous Version | Text Only | Print | Product List | Glossary On
Versions: 1 2 3 4 5 6 7 8 9 10 11 12 13 14 15 16 17 18 19 20 21 22 23 24 25 26 27 28 29 30 31 32 33 34 35 36 37 38 39 40 41 42 43 44 45 46 47 48 49 50
000
ASUS44 KEWX 300011
RWRTX
SOUTH TEXAS REGIONAL WEATHER ROUNDUP
NATIONAL WEATHER SERVICE AUSTIN/SAN ANTONIO TX
700 PM CDT WED JUL 29 2015

NOTE: "FAIR" INDICATED FEW OR NO CLOUDS BELOW 12,000 FEET WITH NO
SIGNIFICANT WEATHER AND/OR OBSTRUCTIONS TO VISIBILITY.

* - THESE STATIONS ARE NOT NWS OR FAA STATIONS...AND ARE NOT SUBJECT
    TO NWS AND FAA QUALITY CONTROL.

TXZ171-172-183>190-300100-
TEXAS HILL COUNTRY AND EDWARDS PLATEAU

CITY           SKY/WX    TMP DP  RH WIND       PRES   REMARKS
JUNCTION       MOSUNNY   98  57  25 SE14      29.99S HX  97
6HR MIN TEMP:  94; 6HR MAX TEMP: 101;

*LLANO         SUNNY     99  59  26 S10       30.00S HX  98
BURNET         SUNNY     97  61  30 SE8       30.01F HX  97
6HR MIN TEMP:  92; 6HR MAX TEMP:  99;

*HORSESHOE BAY SUNNY     98  59  27 SE7       29.98F HX  98
6HR MIN TEMP:  94; 6HR MAX TEMP: 101;

*KERRVILLE     SUNNY     95  60  30 SE5       30.02S HX  95
6HR MIN TEMP:  92; 6HR MAX TEMP:  97;

*FREDERICKSBRG SUNNY     94  56  28 S8        30.02S HX  92
6HR MIN TEMP:  91; 6HR MAX TEMP:  97;

*ROCKSPRINGS   CLOUDY    93  57  29 S13       30.06F HX  92
*BOERNE STAGE  MOSUNNY   93  61  33 S7        30.02S HX  93
*CASTROVILLE   SUNNY     98  59  27 SE8       29.97S HX  97
HONDO          MOSUNNY   97  62  31 SE10      29.98S HX  98
6HR MIN TEMP:  92; 6HR MAX TEMP:  99;

*UVALDE        SUNNY     97  61  29 SE10      29.95S HX  98
6HR MIN TEMP:  91; 6HR MAX TEMP:  98;

DEL RIO        SUNNY     99  60  27 E13G20    29.91F HX  99
6HR MIN TEMP:  93; 6HR MAX TEMP: 101;

LAUGHLIN AFB   SUNNY     99  62  29 SE15      29.93F HX 100
6HR MIN TEMP:  93; 6HR MAX TEMP: 101;

CARRIZO SPRGS  SUNNY    100  57  23 SE7G17    29.90S HX  99
$$

TXZ173-191>194-202-209-217>225-228-300100-
CENTRAL AND SOUTH CENTRAL TEXAS

CITY           SKY/WX    TMP DP  RH WIND       PRES   REMARKS
GEORGETOWN     SUNNY     97  63  32 SE6       29.96F HX  98
6HR MIN TEMP:  93; 6HR MAX TEMP:  99;

AUSTIN/BERGSTM MOSUNNY   96  66  37 S9        29.96F HX  99
6HR MIN TEMP:  92; 6HR MAX TEMP:  99;

AUSTIN/MABRY   SUNNY     96  66  37 VRB5      29.98S HX  99
6HR MIN TEMP:  94; 6HR MAX TEMP: 101;

*AUSTIN/EXEC   SUNNY     95  66  38 SE7       29.98S HX  98
*LAGO VISTA    SUNNY     96  60  30 SE7       30.01S HX  95
6HR MIN TEMP:  93; 6HR MAX TEMP:  99;

SAN MARCOS     SUNNY     97  66  36 S9        29.97F HX 100
6HR MIN TEMP:  91; 6HR MAX TEMP:  99;

NEW BRAUNFELS  MOSUNNY   98  65  33 S6        29.95F HX 101
6HR MIN TEMP:  94; 6HR MAX TEMP: 101;

RANDOLPH AFB   SUNNY     97  63  32 S6        29.97S HX  98
6HR MIN TEMP:  92; 6HR MAX TEMP:  98;

PT SAN ANTONIO SUNNY     97  63  31 SE9       29.95S HX  99
6HR MIN TEMP:  93; 6HR MAX TEMP:  99;

SAN ANTONIO    MOSUNNY   97  64  33 SE8       29.97F HX  99
6HR MIN TEMP:  91; 6HR MAX TEMP:  99;

STINSON FIELD  SUNNY     98  65  33 SE10      29.93F HX 101
6HR MIN TEMP:  94; 6HR MAX TEMP: 100;

*PLEASANTON    MOSUNNY   97  66  35 SE15G21   29.95R HX 101
6HR MIN TEMP:  95; 6HR MAX TEMP: 101;

*LA GRANGE     SUNNY     98  68  37 S5        29.96S HX 103
6HR MIN TEMP:  94; 6HR MAX TEMP:  99;

*GIDDINGS      SUNNY     96  65  35 SE5       30.01F HX  98
6HR MIN TEMP:  93; 6HR MAX TEMP:  98;

*GONZALES      SUNNY     98  68  37 SE8       29.95F HX 103
6HR MIN TEMP:  94; 6HR MAX TEMP: 101;

$$

TXZ163>164-176>182-195>201-210>213-226-227-235-300100-
SOUTHEAST TEXAS

CITY           SKY/WX    TMP DP  RH WIND       PRES   REMARKS
COLLEGE STN    SUNNY     97  64  33 S7        29.97F HX  99
6HR MIN TEMP:  93; 6HR MAX TEMP:  99;

*BRYAN         SUNNY     96  65  36 S6        29.98S HX  99
6HR MIN TEMP:  94; 6HR MAX TEMP: 100;

*CALDWELL      SUNNY     97  61  30 CALM      30.00F HX  97
*CROCKETT        N/A    100  64  30 CALM      30.00S HX 103
*BRENHAM       SUNNY     97  66  36 SE3       29.98S HX 100
6HR MIN TEMP:  93; 6HR MAX TEMP:  99;

HUNTSVILLE     SUNNY     98  64  32 SE3       29.97F HX 100
6HR MIN TEMP:  93; 6HR MAX TEMP: 101;

CONROE         SUNNY     95  67  39 SE6       29.98S HX  99
6HR MIN TEMP:  93; 6HR MAX TEMP:  99;

HOUSTON BUSH   MOSUNNY   96  66  37 E9        29.97R HX  99
6HR MIN TEMP:  93; 6HR MAX TEMP: 100;

HOUSTON HOBBY  MOSUNNY   92  75  57 S10       29.97R HX 103
6HR MIN TEMP:  92; 6HR MAX TEMP: 100;

*HOUSTON SW AP SUNNY     89  74  62 S7        29.99S HX  97
6HR MIN TEMP:  89; 6HR MAX TEMP:  99;

PEARLAND       SUNNY     93  75  55 S8        30.00R HX 104
6HR MIN TEMP:  92; 6HR MAX TEMP: 100;

HOUSTON HOOKS  SUNNY     97  65  34 E6        29.97R HX  99
6HR MIN TEMP:  94; 6HR MAX TEMP:  99;

ELLINGTON FLD  MOSUNNY   93  72  49 S12       30.00R HX 100
SUGAR LAND     PTSUNNY   91  75  59 S13       29.97R HX 101
6HR MIN TEMP:  91; 6HR MAX TEMP: 100;

*HOUSTON EXEC  PTSUNNY   95  66  38 E3        29.98R HX  98
*CLEVELAND MUN SUNNY     93  73  51 S3        29.98S HX 102
6HR MIN TEMP:  93; 6HR MAX TEMP:  99;

*WHARTON       SUNNY     91  71  50 S13       29.98S HX  97
6HR MIN TEMP:  91; 6HR MAX TEMP:  97;

*COLUMBUS      FAIR      92  74  54 S13       29.97R HX 101
6HR MIN TEMP:  92; 6HR MAX TEMP:  98;

*EAGLE LAKE    CLEAR     93  73  51 S8        29.96S HX 102
6HR MIN TEMP:  93; 6HR MAX TEMP: 100;

$$

TXZ214>216-236>238-300100-
THE UPPER TEXAS COAST

CITY           SKY/WX    TMP DP  RH WIND       PRES   REMARKS
*ORANGE        SUNNY     93  69  45 S8        29.98S HX  97
6HR MIN TEMP:  92; 6HR MAX TEMP:  98;

PORT ARTHUR    SUNNY     91  74  57 SW10      29.97R HX 100
6HR MIN TEMP:  91; 6HR MAX TEMP: 100;

GALVESTON      SUNNY     89  77  67 S14       30.00S HX 101
6HR MIN TEMP:  89; 6HR MAX TEMP:  93;

ANGLETON       MOSUNNY   88  78  72 S8        29.99S HX 101
6HR MIN TEMP:  83; 6HR MAX TEMP:  97; 6HR PCP:  0.30;

*BAY CITY      MOSUNNY   90  76  64 S10       29.99S HX 101
PALACIOS       SUNNY     89  75  63 S13       29.99S HX  99
6HR MIN TEMP:  89; 6HR MAX TEMP:  93;

$$

TXZ229>234-239>247-300100-
TEXAS COASTAL BEND AND RIO GRANDE PLAINS

CITY           SKY/WX    TMP DP  RH WIND       PRES   REMARKS
VICTORIA       SUNNY     93  73  52 S16G22    29.98R HX 102
6HR MIN TEMP:  93; 6HR MAX TEMP:  98;

*BEEVILLE      SUNNY     91  73  56 SE14      29.98R HX  99
6HR MIN TEMP:  91; 6HR MAX TEMP:  96;

ROCKPORT       SUNNY     87  76  69 SE12      29.99R HX  97
6HR MIN TEMP:  87; 6HR MAX TEMP:  93;

*PORT ARANSAS  SUNNY     85  78  81 S9        29.99S HX  97
6HR MIN TEMP:  85; 6HR MAX TEMP:  89;

*PORT LAVACA   SUNNY     90  75  62 S13       29.99S HX 100
*INGLESIDE     SUNNY     89  76  65 SE14      29.99R HX 100
CORPUS CHRISTI MOSUNNY   91  73  55 SE18      29.98S HX  99
6HR MIN TEMP:  91; 6HR MAX TEMP:  97;

CORPUS NAS     MOSUNNY   86  76  71 SE17      29.99S HX  96
6HR MIN TEMP:  86; 6HR MAX TEMP:  91;

*ROBSTOWN      SUNNY     91  73  55 SE14G21   29.98S HX  99
6HR MIN TEMP:  91; 6HR MAX TEMP:  98;

ALICE          SUNNY     92  73  53 SE18      29.96R HX 100
6HR MIN TEMP:  92; 6HR MAX TEMP: 100;

KINGSVILLE NAS MOSUNNY   90  76  63 SE15      29.97S HX 101
6HR MIN TEMP:  90; 6HR MAX TEMP:  97;

COTULLA        MOSUNNY  102  58  23 SE9       29.92S HX 102
6HR MIN TEMP:  97; 6HR MAX TEMP: 105;

*FAITH RANCH     N/A    102  54  19 SE12G17   29.91S HX 100
LAREDO         MOSUNNY  102  60  25 SE18      29.92S HX 102
6HR MIN TEMP: 100; 6HR MAX TEMP: 105;

$$

TXZ248>255-300100-
DEEP SOUTH TEXAS

CITY           SKY/WX    TMP DP  RH WIND       PRES   REMARKS
BROWNSVILLE    SUNNY     88  74  63 SE16      29.99R HX  96
6HR MIN TEMP:  88; 6HR MAX TEMP:  95;

PORT ISABEL    SUNNY     87  75  67 SE18      29.98S HX  96


USA.gov is the U.S. government's official web portal to all federal, state and local government web resources and services.